Regional Weather Roundup
Issued by NWS Cleveland, OH

Home | Current Version | Previous Version | Graphics & Text | Print | Product List | Glossary On
Versions: 1 2 3 4 5 6 7 8 9 10 11 12 13 14 15 16 17 18 19 20 21 22 23 24 25 26 27 28 29 30 31 32 33 34 35 36 37 38 39 40 41 42 43 44 45 46 47 48 49 50
000
ASUS41 KCLE 040110
RWRCLE
OHIO REGIONAL WEATHER ROUNDUP
NATIONAL WEATHER SERVICE CLEVELAND, OH
900 PM EDT THU SEP 03 2015

NOTE: "FAIR" INDICATES FEW OR NO CLOUDS BELOW 12,000 FEET WITH NO
SIGNIFICANT WEATHER AND/OR OBSTRUCTIONS TO VISIBILITY.

OHZ001>008-015>018-024>027-034-035-043-044-040200-
   NORTHWEST OHIO

CITY           SKY/WX    TMP DP  RH WIND       PRES   REMARKS
DEFIANCE       MOCLDY    82  68  62 CALM      29.89F
FINDLAY        PTCLDY    77  70  79 S6        29.90F
TOLEDO EXPRESS CLOUDY    77  69  76 E12       29.89R
TOLEDO EXEC    LGT RAIN  76  67  73 E9        29.92S
LIMA           PTCLDY    80  67  64 S5        29.92F
$$

OHZ009>014-019>023-028>033-038-089-040200-
   NORTHEAST OHIO

CITY           SKY/WX    TMP DP  RH WIND       PRES   REMARKS
CLE-HOPKINS    MOCLDY    73  66  78 SE7       29.96R
CLE-LAKEFRONT  PTCLDY    79  64  60 SE6       29.92F
CUY CO. ARPT   MOCLDY    75  68  78 SE7       29.95F
LORAIN-ELYRIA  MOCLDY    71  67  87 NW5       29.95R
ASHTABULA      PTCLDY    70  67  90 E3        29.96F
AKRON-CANTON   CLOUDY    68  65  90 CALM      29.97S
WOOSTER        MOCLDY    68  66  93 CALM      29.98R FOG
MANSFIELD      LGT RAIN  72  66  81 SE10      29.97R
YOUNGSTOWN     LGT RAIN  71  68  90 NE7       29.97F
$$

OHZ042-051>053-060>062-070>072-077>081-040200-
  SOUTHWEST OHIO

CITY           SKY/WX    TMP DP  RH WIND       PRES   REMARKS
CINC-COVINGTON CLEAR     80  65  59 W3        29.96R
CINC-LUNKEN    CLEAR     75  69  81 CALM      29.94S
HAMILTON       CLEAR     73  69  87 CALM      29.95S
DAYTON         PTCLDY    79  66  64 SW3       29.96S
WRIGHT-PAT AFB PTCLDY    77  68  75 S1        29.94S
DAYTON GENERAL CLEAR     80  66  62 CALM      29.95S
WILMINGTON     CLEAR     74  68  81 CALM      29.97R
$$

OHZ036-037-039>041-045>050-054>059-063>069-073>076-082>088-040200-
  CENTRAL AND SOUTHEAST OHIO

CITY           SKY/WX    TMP DP  RH WIND       PRES   REMARKS
COLUMBUS       TSTM      71  65  81 S17G24    29.96S
OSU AIRPORT    PTCLDY    75  67  76 S5        29.96R
BOLTON FIELD   MOCLDY    73  65  76 SE9       29.97S
RICKENBACK AFB MOCLDY    73  63  71 E14       29.96S THUNDER
NEWARK         MOCLDY    73  66  78 S5        29.97R
MARION         MOCLDY    75  68  78 S12       29.95R
LANCASTER      TSTM      70  61  73 W15       30.00R
ZANESVILLE     MOCLDY    70  67  90 CALM      29.97S
NEW PHILLY     CLOUDY    69  69 100 CALM      29.97S FOG
$$


USA.gov is the U.S. government's official web portal to all federal, state and local government web resources and services.